Regional Weather Roundup
Issued by NWS

Home | Current Version | Previous Version | Text Only | Print | Product List | Glossary Off
Versions: 1 2 3 4 5 6 7 8 9 10 11 12 13 14 15 16 17 18 19 20 21 22 23 24 25 26 27 28 29 30 31 32 33 34 35 36 37 38 39 40 41 42 43 44 45 46 47 48 49 50

000
ASUS43 KMPX 251410
RWRMN
WEATHER ROUNDUP FOR MINNESOTA
NATIONAL WEATHER SERVICE TWIN CITIES/CHANHASSEN MN
800 AM CST THU DEC 25 2014


NOTE: "FAIR" INDICATES FEW OR NO CLOUDS BELOW 12,000 FEET WITH NO
SIGNIFICANT WEATHER AND/OR OBSTRUCTIONS TO VISIBILITY. N/A MEANS
CURRENT SKY AND/OR WEATHER CONDITIONS ARE NOT AVAILABLE.

MNZ060>063-068>070-251500-
   Twin Cities Metro

CITY           SKY/WX    TMP DP  RH WIND       PRES   REMARKS
TWIN CITIES    CLOUDY    30  26  85 S7        29.68R WCI  23
ST PAUL        CLOUDY    30  27  88 S8        29.70R WCI  22
CRYSTAL        CLOUDY    31  27  85 S8        29.66R WCI  23
BLAINE         CLOUDY   N/A N/A N/A S9        29.67R
LAKEVILLE      CLOUDY    28  27  93 S6        29.68S WCI  22
EDEN PRAIRIE   CLOUDY    30  27  88 S8        29.67R WCI  22
SOUTH ST PAUL  CLOUDY    31  28  87 S8        29.68S WCI  24
LAKE ELMO      CLOUDY    32  28  86 S10       29.69S WCI  24
$$
MNZ001>005-007-008-013>017-022>024-027-028-251500-
   Northwest Minnesota

CITY           SKY/WX    TMP DP  RH WIND       PRES   REMARKS
BEMIDJI        CLOUDY    28  26  90 W10G16    29.58R FOG     WCI  19
HALLOCK        CLOUDY    28  27  93 NW9       29.61R WCI  20
ROSEAU         CLOUDY    30  25  80 W7        29.57R WCI  23
WARROAD        CLOUDY    28  25  86 W7        29.56R WCI  21
THIEF RVR FALL CLOUDY    28  27  93 W10       29.61R WCI  19
CROOKSTON      CLOUDY    28  27  93 NW13      29.64R WCI  18
FOSSTON        CLOUDY    25  25 100 W8        29.62R WCI  16
DETROIT LAKES  CLOUDY    28  28 100 NW7       29.61R FOG     WCI  21
MOORHEAD       CLOUDY    27  27 100 N8        29.64R WCI  18
PARK RAPIDS    CLOUDY    30  27  88 W10       29.58R WCI  21
MAHNOMEN       CLOUDY    27  25  94 NW8       29.61R WCI  18
$$
MNZ006-009>011-018-025>026-251500-
   North Central Minnesota

CITY           SKY/WX    TMP DP  RH WIND       PRES   REMARKS
BAUDETTE       CLOUDY    29  25  85 W6        29.54R WCI  23
FLAG ISLAND    CLOUDY    28  27  93 W8        29.52R WCI  20
INTL FALLS     CLOUDY    30  26  85 W6        29.53R WCI  24
WASKISH        CLOUDY    30  28  93 W13       29.57R WCI  20
BIG FORK       MIX PCPN  30  28  93 SW7       29.56R WCI  23
LONGVILLE      CLOUDY    30  28  93 W5        29.58R WCI  25
GRAND RAPIDS   CLOUDY    30  25  80 W5        29.57R WCI  25
CRANE LAKE     CLOUDY    28  27  93 CALM      29.56R
ORR            CLOUDY    28  25  86 W5G17     29.53R WCI  23
COOK           MIX PCPN  28  28 100 SW9       29.56R WCI  20
WALKER         CLOUDY    29  27  90 W10G18    29.58R WCI  20
$$
MNZ012-019>021-037-251500-
   Northeast Minnesota

CITY           SKY/WX    TMP DP  RH WIND       PRES   REMARKS
DULUTH         CLOUDY    31  27  85 W13       29.57R WCI  21
ELY            CLOUDY    30  27  86 W6        29.54R WCI  24
HIBBING        CLOUDY    31  26  82 VRB7      29.56R WCI  24
EVELETH        CLOUDY    32  30  93 W9        29.57R WCI  24
DULUTH HARBOR  CLOUDY    34  28  80 SW12      29.61R WCI  25
TWO HARBORS    CLOUDY    36  28  75 SW10      29.56R
SILVER BAY     CLOUDY    34  28  80 SW5       29.55R WCI  30
GRAND MARAIS     N/A     33  28  81 CALM      29.56R
G MARAIS ARPRT CLOUDY    27  23  86 CALM      29.52R
$$
MNZ029>031-032-039>041-046>048-054>057-064-251500-
   West Central Minnesota

CITY           SKY/WX    TMP DP  RH WIND       PRES   REMARKS
FERGUS FALLS   CLOUDY    28  27  93 NW6       29.65R WCI  22
WHEATON        MOCLDY    28  27  93 W6        29.66R WCI  22
MORRIS         MOCLDY    28  28 100 S3        29.63R FOG
ALEXANDRIA     CLOUDY    28  26  92 SW5       29.62R WCI  23
ELBOW LAKE     CLOUDY    28  27  98 SW5       29.62R WCI  22
WADENA         CLOUDY    28  27  93 SW8       29.59R WCI  20
GLENWOOD       MOCLDY    28  27  93 SW6       29.63R WCI  22
APPLETON       MOCLDY    30  28  93 CALM      29.64R
BENSON         MIX PCPN  30  28  93 SW5       29.64R WCI  25
ORTONVILLE     CLOUDY    30  27  86 CALM      29.64R
MADISON        LGT SNOW  34  32  93 CALM      29.64R
WILLMAR        LGT SNOW  30  28  93 CALM      29.65R
$$
MNZ033>034-036-042>043-049>051-058-059-251500-
   Central Minnesota

CITY           SKY/WX    TMP DP  RH WIND       PRES   REMARKS
ST CLOUD       CLOUDY    32  27  81 S8        29.64R WCI  25
SAUK CENTRE    PTSUNNY   28  27  94 SW5       29.62S WCI  23
PAYNESVILLE    CLOUDY    27  26  97 SE7       29.64R FOG     WCI  20
AITKIN         CLOUDY    34  27  75 SW5       29.59R WCI  30
PINE RIVER     CLOUDY    28  28 100 W6        29.63R WCI  22
BRAINERD       CLOUDY    29  26  89 SW9       29.61R WCI  20
STAPLES        CLOUDY    28  27  93 SW5       29.60R WCI  23
LONG PRAIRIE   CLOUDY    28  27  93 W5        29.62R WCI  23
LITTLE FALLS   CLOUDY    30  27  86 S5        29.62S WCI  25
LITCHFIELD     CLOUDY    30  30 100 S3        29.66R
BUFFALO        CLOUDY    30  27  88 S8        29.67R WCI  22
MAPLE LAKE     CLOUDY    31  29  93 S3        29.67R
$$
MNZ037-044-045-052-053-251500-
   East Central Minnesota

CITY           SKY/WX    TMP DP  RH WIND       PRES   REMARKS
PRINCETON      CLOUDY    30  28  93 S6        29.65R WCI  24
MORA           CLOUDY    32  28  86 SW6       29.65S WCI  26
CAMBRIDGE      CLOUDY    32  25  74 S7        29.64R WCI  26
RUSH CITY      CLOUDY    30  27  86 S7        29.65S WCI  24
MOOSE LAKE     CLOUDY    32  28  86 SW8       29.60R WCI  25
HINCKLEY       CLOUDY    32  30  93 SW6       29.64R WCI  26
CLOQUET        CLOUDY    30  28  93 SW7       29.59R WCI  23
MCGREGOR       CLOUDY    32  28  86 SW7       29.61R WCI  26
$$
MNZ071>073-080-081-089-090-097-098-251500-
   Southwest Minnesota

CITY           SKY/WX    TMP DP  RH WIND       PRES   REMARKS
MONTEVIDEO     LGT SNOW  30  30 100 CALM      29.65S
GRANITE FALLS  CLOUDY    30  28  92 CALM      29.66R
CANBY          CLOUDY    30  28  94 CALM      29.65R
MARSHALL       CLOUDY    30  25  80 CALM      29.65R
REDWOOD FALLS  CLOUDY    31  28  89 S5        29.65R WCI  26
OLIVIA         CLOUDY    28  28 100 S3        29.64S
PIPESTONE      CLOUDY    28  27  93 CALM      29.60R
WINDOM         CLOUDY    30  28  93 CALM      29.63R
WORTHINGTON    CLOUDY    28 -18  12 S8        29.62R WCI  20
JACKSON        CLOUDY    30  28  93 S6        29.63R WCI  24
TRACY          CLOUDY    31  29  93 CALM      29.64R
SLAYTON        CLOUDY    28  26  94 CALM      29.62R
$$
MNZ065>067-074>077-082>085-091>093-251500-
   South Central Minnesota

CITY           SKY/WX    TMP DP  RH WIND       PRES   REMARKS
MANKATO        CLOUDY    30  25  80 S9        29.66S WCI  22
NEW ULM        CLOUDY    30  28  93 S7        29.65R FOG     WCI  23
ST JAMES       CLOUDY    32  28  86 SE7       29.65S WCI  26
FAIRMONT       CLOUDY    30  25  80 S13       29.63F WCI  20
GLENCOE        CLOUDY    32  30  94 S6        29.66R WCI  26
FARIBAULT      CLOUDY    30  28  93 S8        29.68S FOG     WCI  23
OWATONNA       CLOUDY    30  27  86 S12       29.68S WCI  21
ALBERT LEA     CLOUDY    30  28  93 S12       29.67F WCI  21
$$
MNZ078>079-086>088-094>096-251500-
   Southeast Minnesota

CITY           SKY/WX    TMP DP  RH WIND       PRES   REMARKS
ROCHESTER      CLOUDY    29  27  92 S13       29.71R FOG     WCI  19
RED WING       CLOUDY    30  27  86 S6        29.71R WCI  24
STANTON        CLOUDY    32  28  85 S8        29.68S WCI  25
DODGE CENTER   CLOUDY    28  28 100 S10       29.68S WCI  19
WINONA         CLOUDY    32  28  86 CALM      29.75R
AUSTIN         CLOUDY    28  27  93 S9        29.69F WCI  20
PRESTON        CLOUDY    28  26  93 S15       29.72R FOG     WCI  17
$$
ABBREVIATIONS USED IN REMARKS
   TC - TEMPERATURES IN CELSIUS
  WCI - WIND CHILL INDEX
   HX - HEAT INDEX
  VSB - VISIBILITY
$$


USA.gov is the U.S. government's official web portal to all federal, state and local government web resources and services.